Preview of NWS' New Version of Forecast
This preview is not operational and should not be used for support decisions.

Regional Weather Roundup (RWR)

Issued by National Weather Service (NWS)

                            
000
ASUS45 KCYS 180610
RWRWY 

WYOMING REGIONAL WEATHER ROUNDUP
NATIONAL WEATHER SERVICE CHEYENNE WY
1200 AM MDT TUE JUN 18 2019

NOTE:  "FAIR" INDICATES FEW OR NO CLOUDS BELOW 12,000 FEET
WITH NO SIGNIFICANT WEATHER AND/OR OBSTRUCTIONS TO VISIBILITY.

WYZ001-180700-
...YELLOWSTONE NATIONAL PARK...
  
CITY           SKY/WX    TMP DP  RH WIND       PRES   REMARKS
LK YELLOWSTONE NOT AVBL                                               
W YELLOWSTONE  NOT AVBL                                               

$$
WYZ002>013-054>058-071-098>099-180700-
...NORTHERN WYOMING...
  
CITY           SKY/WX    TMP DP  RH WIND       PRES   REMARKS
JACKSON        CLOUDY    47  46  97 CALM      30.20F                  
CODY           CLOUDY    58  48  69 SW8       30.11F                  
GREYBULL       PTCLDY    59  54  83 CALM      30.05F                  
6HR MIN TEMP:  58; 6HR MAX TEMP:  77; 6HR PCP: TRACE;                

WORLAND        CLOUDY    58  54  86 S14       30.09S                  
6HR MIN TEMP:  58; 6HR MAX TEMP:  75; 6HR PCP:  0.05;                

SHERIDAN       PTCLDY    50  47  89 CALM      30.06F                  
6HR MIN TEMP:  50; 6HR MAX TEMP:  70;                                

BUFFALO        MOCLDY    54  47  77 W7        30.11F                  
6HR MIN TEMP:  52; 6HR MAX TEMP:  65;                                

GILLETTE       CLOUDY    56  53  90 S12       30.10S                  
6HR MIN TEMP:  55; 6HR MAX TEMP:  71;                                

HULETT         NOT AVBL                                               
NEWCASTLE      CLOUDY    54  50  87 E13       30.15S                  

$$
WYZ014>020-022>026-101>103-180700-
...CENTRAL WYOMING...
  
CITY           SKY/WX    TMP DP  RH WIND       PRES   REMARKS
BIG PINEY      CLOUDY    51  45  79 CALM      30.22F                  
6HR MIN TEMP:  50; 6HR MAX TEMP:  63; 6HR PCP: TRACE;                

PINEDALE       MOCLDY    48  41  76 CALM      30.22F                  
DUBOIS         FAIR      45  41  87 W7        30.22F                  
LANDER         CLOUDY    56  46  69 W3        30.13F                  
6HR MIN TEMP:  54; 6HR MAX TEMP:  61; 6HR PCP: TRACE;                

RIVERTON       PTCLDY    53  52  96 N3        30.15S                  
6HR MIN TEMP:  53; 6HR MAX TEMP:  62; 6HR PCP:  0.01;                

CASPER         CLOUDY    55  54  96 N6        30.13F                  
6HR MIN TEMP:  55; 6HR MAX TEMP:  63; 6HR PCP: TRACE;                

DOUGLAS        HVY RAIN  57  54  89 SE10      30.14F FOG              
6HR MIN TEMP:  56; 6HR MAX TEMP:  64; 6HR PCP:  0.05;                


$$
WYZ021-027>030-104>119-180700-
...SOUTHERN WYOMING...
  
CITY           SKY/WX    TMP DP  RH WIND       PRES   REMARKS
EVANSTON       MOCLDY    51  42  71 SW5       30.22F                  
6HR MIN TEMP:  50; 6HR MAX TEMP:  57; 6HR PCP: TRACE;                

KEMMERER       CLEAR     50  43  76 N10       30.23F                  
FORT BRIDGER   PTCLDY    54  45  71 W6        30.24                   
ROCK SPRINGS   PTCLDY    53  47  79 CALM      30.19F                  
6HR MIN TEMP:  51; 6HR MAX TEMP:  56; 6HR PCP: TRACE;                

DIXON          CLOUDY    52  44  73 E9        30.20F                  
RAWLINS        MOCLDY    51  47  86 NE13      30.20S                  
6HR MIN TEMP:  51; 6HR MAX TEMP:  57; 6HR PCP:  0.05;                

SARATOGA       FAIR      52  48  87 CALM      30.20F                  
LARAMIE        LGT RAIN  51  48  89 S6        30.20F                  
6HR MIN TEMP:  51; 6HR MAX TEMP:  60; 6HR PCP:  0.16;                

CHEYENNE         N/A    N/A N/A N/A MISG      30.18S                  
                                      6HR PCP: TRACE;                

TORRINGTON     CLOUDY    58  56  93 SE7       30.11S                  
6HR MIN TEMP:  58; 6HR MAX TEMP:  62; 6HR PCP: TRACE;                

PINE BLUFFS    CLOUDY    55  55 100 N6        30.15R                  

$$
  

000
ASUS45 KCYS 180610
RWRWY 

WYOMING REGIONAL WEATHER ROUNDUP
NATIONAL WEATHER SERVICE CHEYENNE WY
1200 AM MDT TUE JUN 18 2019

NOTE:  "FAIR" INDICATES FEW OR NO CLOUDS BELOW 12,000 FEET
WITH NO SIGNIFICANT WEATHER AND/OR OBSTRUCTIONS TO VISIBILITY.

WYZ001-180700-
YELLOWSTONE NATIONAL PARK
  
CITY           SKY/WX    TMP DP  RH WIND       PRES   REMARKS
LK YELLOWSTONE NOT AVBL                                               
W YELLOWSTONE  NOT AVBL                                               

$$
WYZ002>013-054>058-071-098>099-180700-
NORTHERN WYOMING
  
CITY           SKY/WX    TMP DP  RH WIND       PRES   REMARKS
JACKSON        FAIR      47  46  97 CALM      30.20F                  
CODY           CLOUDY    58  48  69 SW8       30.11F                  
GREYBULL       FAIR      59  54  83 CALM      30.05F                  
6HR MIN TEMP:  58; 6HR MAX TEMP:  77; 6HR PCP: TRACE;                

WORLAND        CLOUDY    58  54  86 S14       30.09S                  
6HR MIN TEMP:  58; 6HR MAX TEMP:  75; 6HR PCP:  0.05;                

SHERIDAN       FAIR      50  47  89 CALM      30.06F                  
6HR MIN TEMP:  50; 6HR MAX TEMP:  70;                                

BUFFALO        FAIR      54  47  77 W7        30.11F                  
6HR MIN TEMP:  52; 6HR MAX TEMP:  65;                                

GILLETTE       FAIR      56  53  90 S12       30.10S                  
6HR MIN TEMP:  55; 6HR MAX TEMP:  71;                                

NEWCASTLE      CLOUDY    54  50  87 E13       30.15                   

$$
WYZ014>020-022>026-101>103-180700-
CENTRAL WYOMING
  
CITY           SKY/WX    TMP DP  RH WIND       PRES   REMARKS
BIG PINEY      FAIR      51  45  79 CALM      30.22F                  
6HR MIN TEMP:  50; 6HR MAX TEMP:  63; 6HR PCP: TRACE;                

PINEDALE       FAIR      48  41  76 CALM      30.22                   
DUBOIS         FAIR      45  41  87 W7        30.22                   
LANDER         CLOUDY    56  46  69 W3        30.13F                  
6HR MIN TEMP:  54; 6HR MAX TEMP:  61; 6HR PCP: TRACE;                

RIVERTON       FAIR      53  52  96 N3        30.15S                  
6HR MIN TEMP:  53; 6HR MAX TEMP:  62; 6HR PCP:  0.01;                

CASPER         CLOUDY    55  54  96 N6        30.13F                  
6HR MIN TEMP:  55; 6HR MAX TEMP:  63; 6HR PCP: TRACE;                

DOUGLAS        HVY RAIN  57  54  89 SE10      30.14F FOG              
6HR MIN TEMP:  56; 6HR MAX TEMP:  64; 6HR PCP:  0.05;                


$$
WYZ021-027>030-104>119-180700-
SOUTHERN WYOMING
  
CITY           SKY/WX    TMP DP  RH WIND       PRES   REMARKS
EVANSTON       FAIR      51  42  71 SW5       30.22F                  
6HR MIN TEMP:  50; 6HR MAX TEMP:  57; 6HR PCP: TRACE;                

KEMMERER       FAIR      50  41  71 N9        30.23                   
FORT BRIDGER   PTCLDY    54  45  71 W6        30.24                   
ROCK SPRINGS   FAIR      53  47  79 CALM      30.19F                  
6HR MIN TEMP:  51; 6HR MAX TEMP:  56; 6HR PCP: TRACE;                

DIXON          CLOUDY    52  44  73 E9        30.20F                  
RAWLINS        MOCLDY    51  47  86 NE13      30.20S                  
6HR MIN TEMP:  51; 6HR MAX TEMP:  57; 6HR PCP:  0.05;                

SARATOGA       FAIR      52  48  87 CALM      30.20F                  
LARAMIE        LGT RAIN  51  48  89 S6        30.20F                  
6HR MIN TEMP:  51; 6HR MAX TEMP:  60; 6HR PCP:  0.16;                

CHEYENNE         N/A    N/A N/A N/A MISG      30.18S                  
                                      6HR PCP: TRACE;                

TORRINGTON     CLOUDY    58  56  93 SE7       30.11S                  
6HR MIN TEMP:  58; 6HR MAX TEMP:  62; 6HR PCP: TRACE;                

PINE BLUFFS    CLOUDY    55  55 100 N6        30.15R                  

$$